Weather History for KGEV - May, 2014

Change the Weather History Date:

Wednesday, May 14, 2014

  Actual Average Record
Temperature  
Mean Temperature 66 °F -  
Max Temperature 75 °F 72 °F 83 °F (1970)
Min Temperature 57 °F 46 °F 34 °F (2013)
Cooling Degree Days 1    
Growing Degree Days 16 (Base 50)    
Moisture  
Dew Point 56 °F    
Average Humidity 71    
Maximum Humidity 96    
Minimum Humidity 43    
Precipitation  
Precipitation 0.00 in - - ()
Sea Level Pressure  
Sea Level Pressure 30.19 in    
Wind  
Wind Speed 3 mph (SE)    
Max Wind Speed 10 mph    
Max Gust Speed 20 mph    
Visibility 9 miles    
Events      
Averages and records for this station are not official NWS values.
T = Trace of Precipitation, MM = Missing Value Source: NWS Daily Summary

Daily Weather History Graph

Daily Weather History Graph

Search for Another Location

Airport or City:

Trip Planner

Search our weather history database for the weather conditions in past years. The results will help you decide how hot, cold, wet, or windy it might be!

Date:

Astronomy

May. 14, 2014 Rise Set
Actual Time 6:19 AM EDT 8:24 PM EDT
Civil Twilight 5:51 AM EDT 8:53 PM EDT
Nautical Twilight 5:16 AM EDT 9:28 PM EDT
Astronomical Twilight 4:38 AM EDT 10:06 PM EDT
Moon 8:29 PM EDT (5/14) 6:15 AM EDT (5/14)
Length of Visible Light 15h 02m
Length of Day
14h 05m
Full, 100% of the Moon is Illuminated
May 14
Full
May 14
Full
May 21
Last Quarter
May 28
New
Jun 5
First Quarter

Hourly Weather History & Observations

Time (EDT) Temp. Dew Point Humidity Pressure Visibility Wind Dir Wind Speed Gust Speed Precip Events Conditions
12:15 AM 63.7 °F 60.1 °F 88% 30.25 in 10.0 mi Calm Calm - N/A   Clear
12:35 AM 64.4 °F 60.3 °F 86% 30.25 in 10.0 mi Calm Calm - N/A   Clear
12:55 AM 63.7 °F 60.1 °F 88% 30.24 in 10.0 mi Calm Calm - N/A   Clear
1:15 AM 63.5 °F 59.2 °F 86% 30.24 in 10.0 mi Calm Calm - N/A   Clear
1:35 AM 62.2 °F 59.0 °F 89% 30.24 in 10.0 mi Calm Calm - N/A   Clear
1:55 AM 63.7 °F 59.0 °F 85% 30.23 in 10.0 mi Calm Calm - N/A   Clear
2:15 AM 60.8 °F 58.5 °F 92% 30.23 in 7.0 mi Calm Calm - N/A   Clear
2:35 AM 61.7 °F 59.0 °F 91% 30.23 in 10.0 mi Calm Calm - N/A   Clear
2:55 AM 60.8 °F 58.5 °F 92% 30.22 in 7.0 mi Calm Calm - N/A   Clear
3:15 AM 60.8 °F 59.0 °F 94% 30.22 in 10.0 mi Calm Calm - N/A   Clear
3:35 AM 59.7 °F 58.1 °F 94% 30.22 in 3.0 mi Calm Calm - N/A   Scattered Clouds
3:55 AM 59.5 °F 57.7 °F 94% 30.22 in 1.2 mi Calm Calm - N/A   Mostly Cloudy
4:15 AM 59.4 °F 57.7 °F 94% 30.22 in 1.8 mi NNW 4.6 mph - N/A   Overcast
4:35 AM 58.6 °F 56.8 °F 94% 30.22 in 1.2 mi Calm Calm - N/A   Mostly Cloudy
4:55 AM 58.5 °F 57.2 °F 96% 30.22 in 5.0 mi Calm Calm - N/A   Scattered Clouds
5:15 AM 58.8 °F 57.2 °F 94% 30.22 in 7.0 mi Calm Calm - N/A   Scattered Clouds
5:35 AM 59.2 °F 57.6 °F 94% 30.23 in 7.0 mi Calm Calm - N/A   Scattered Clouds
5:55 AM 59.4 °F 57.7 °F 94% 30.22 in 7.0 mi Calm Calm - N/A   Clear
6:15 AM 59.4 °F 57.6 °F 94% 30.22 in 7.0 mi Calm Calm - N/A   Clear
6:35 AM 57.4 °F 55.2 °F 92% 30.22 in 2.0 mi Calm Calm - N/A   Clear
6:55 AM 59.4 °F 57.7 °F 94% 30.22 in 5.0 mi Calm Calm - N/A   Clear
7:15 AM 60.4 °F 58.5 °F 93% 30.22 in 10.0 mi Calm Calm - N/A   Clear
7:35 AM 59.7 °F 57.9 °F 94% 30.23 in 5.0 mi Calm Calm - N/A   Clear
7:55 AM 59.4 °F 57.4 °F 93% 30.23 in 7.0 mi Calm Calm - N/A   Clear
8:15 AM 62.4 °F 60.1 °F 92% 30.23 in 5.0 mi Calm Calm - N/A   Clear
8:35 AM 62.8 °F 59.5 °F 89% 30.23 in 10.0 mi Calm Calm - N/A   Clear
8:55 AM 64.6 °F 60.1 °F 85% 30.23 in 10.0 mi Calm Calm - N/A   Clear
9:15 AM 66.2 °F 60.1 °F 81% 30.23 in 10.0 mi East 3.5 mph - N/A   Clear
9:35 AM 66.9 °F 60.3 °F 79% 30.23 in 10.0 mi Calm Calm - N/A   Clear
9:55 AM 69.6 °F 58.8 °F 68% 30.23 in 10.0 mi ESE 4.6 mph - N/A   Clear
10:35 AM 72.7 °F 58.5 °F 61% 30.23 in 10.0 mi SE 6.9 mph - N/A   Scattered Clouds
10:55 AM 70.9 °F 56.3 °F 60% 30.23 in 10.0 mi SSE 8.1 mph - N/A   Scattered Clouds
11:15 AM 71.2 °F 56.3 °F 59% 30.23 in 10.0 mi SSE 6.9 mph - N/A   Mostly Cloudy
11:35 AM 72.3 °F 56.8 °F 58% 30.23 in 10.0 mi SSE 6.9 mph 17.3 mph N/A   Scattered Clouds
11:55 AM 71.8 °F 56.7 °F 59% 30.23 in 10.0 mi SSE 9.2 mph - N/A   Mostly Cloudy
12:15 PM 72.5 °F 57.0 °F 58% 30.23 in 10.0 mi SE 8.1 mph - N/A   Mostly Cloudy
12:55 PM 74.3 °F 56.3 °F 53% 30.22 in 10.0 mi SE 9.2 mph 18.4 mph N/A   Scattered Clouds
1:15 PM 73.8 °F 54.9 °F 52% 30.21 in 10.0 mi SSE 8.1 mph 17.3 mph N/A   Scattered Clouds
1:35 PM 73.6 °F 55.0 °F 52% 30.20 in 10.0 mi SE 9.2 mph - N/A   Mostly Cloudy
1:55 PM 73.4 °F 55.0 °F 52% 30.20 in 10.0 mi SE 9.2 mph - N/A   Mostly Cloudy
2:15 PM 73.8 °F 54.3 °F 51% 30.19 in 10.0 mi SE 8.1 mph 19.6 mph N/A   Mostly Cloudy
2:35 PM 75.4 °F 54.1 °F 48% 30.19 in 7.0 mi SSE 9.2 mph - N/A   Scattered Clouds
2:55 PM 74.5 °F 54.1 °F 49% 30.18 in 10.0 mi SE 8.1 mph 18.4 mph N/A   Scattered Clouds
3:15 PM 74.5 °F 53.2 °F 47% 30.17 in 10.0 mi SSE 9.2 mph - N/A   Scattered Clouds
3:35 PM 73.6 °F 50.5 °F 44% 30.17 in 10.0 mi SSE 9.2 mph 17.3 mph N/A   Scattered Clouds
3:55 PM 74.8 °F 50.9 °F 43% 30.16 in 10.0 mi SSE 8.1 mph - N/A   Scattered Clouds
4:15 PM 72.1 °F 50.5 °F 46% 30.15 in 10.0 mi SE 10.4 mph 17.3 mph N/A   Mostly Cloudy
4:35 PM 73.6 °F 53.2 °F 49% 30.14 in 10.0 mi ESE 6.9 mph - N/A   Mostly Cloudy
4:55 PM 73.9 °F 53.8 °F 49% 30.14 in 10.0 mi SE 5.8 mph 19.6 mph N/A   Mostly Cloudy
5:15 PM 73.4 °F 51.1 °F 45% 30.14 in 10.0 mi SSE 9.2 mph 16.1 mph N/A   Scattered Clouds
5:35 PM 71.6 °F 52.2 °F 50% 30.14 in 10.0 mi SSE 9.2 mph 17.3 mph N/A   Scattered Clouds
6:15 PM 69.8 °F 53.2 °F 56% 30.14 in 10.0 mi SE 6.9 mph - N/A   Scattered Clouds
6:35 PM 69.8 °F 53.1 °F 55% 30.12 in 10.0 mi SE 10.4 mph 16.1 mph N/A   Scattered Clouds
6:55 PM 70.2 °F 52.9 °F 54% 30.12 in 10.0 mi SSE 6.9 mph 17.3 mph N/A   Clear
7:15 PM 69.3 °F 53.2 °F 57% 30.13 in 10.0 mi SE 4.6 mph - N/A   Scattered Clouds
7:55 PM 67.3 °F 53.6 °F 61% 30.13 in 10.0 mi SE 3.5 mph - N/A   Scattered Clouds
8:15 PM 66.6 °F 53.6 °F 63% 30.14 in 10.0 mi Calm Calm - N/A   Clear
8:35 PM 66.0 °F 53.2 °F 63% 30.14 in 10.0 mi SE 3.5 mph - N/A   Clear
8:55 PM 65.5 °F 52.7 °F 63% 30.14 in 10.0 mi SE 4.6 mph - N/A   Scattered Clouds
9:15 PM 65.7 °F 52.2 °F 62% 30.14 in 10.0 mi SSE 3.5 mph - N/A   Mostly Cloudy
9:35 PM 66.2 °F 52.0 °F 60% 30.15 in 10.0 mi SSE 3.5 mph - N/A   Overcast
9:55 PM 65.8 °F 51.8 °F 60% 30.15 in 10.0 mi SE 5.8 mph - N/A   Overcast
10:15 PM 65.5 °F 51.8 °F 61% 30.14 in 10.0 mi SSE 5.8 mph - N/A   Mostly Cloudy
10:35 PM 65.5 °F 52.2 °F 62% 30.14 in 10.0 mi SSE 4.6 mph - N/A   Scattered Clouds
10:55 PM 65.3 °F 52.3 °F 63% 30.13 in 10.0 mi SE 4.6 mph - N/A   Mostly Cloudy
11:15 PM 65.3 °F 52.7 °F 64% 30.13 in 10.0 mi SE 8.1 mph - N/A   Mostly Cloudy
11:35 PM 65.3 °F 53.2 °F 65% 30.13 in 10.0 mi SSE 8.1 mph - N/A   Mostly Cloudy
11:55 PM 65.3 °F 53.8 °F 66% 30.13 in 10.0 mi SE 6.9 mph - N/A   Overcast